Location: Ernez
(36.4595°N, 29.8755°E)
Time: 09:45:23
(UTC+00:00)

Cosmos 1513 Rocket - Pass Details

Date: 13 November 2025
Orbit: 939 x 1007 km, 82.9° (Epoch: 05 December)

Event Time Altitude Azimuth Distance (km) Brightness Sun altitude
Rises 16:17:52 0° 184° (S) 3,662 7.7 -17.1°
Reaches altitude 10° 16:20:20 10° 184° (S) 2,728 7.0 -17.6°
Maximum altitude 16:26:37 88° 96° (E) 1,000 4.5 -18.9°
Drops below altitude 10° 16:33:02 10° 7° (N) 2,781 6.7 -20.2°
Sets 16:35:35 0° 7° (N) 3,739 7.4 -20.7°
